GFSSGP_700_spd_162.txt.gz
Wind_Speed
22 21 19 18 13 10 18 18 12 11 11 14 4 14 3 4 10 1 16 7 8 10 7 4 5 7 10 13 13 14 15 17 18 18 18 17 16 14 14 14 13 12 12 11 11 10 9 8 7
25 24 22 21 16 19 24 18 16 10 5 12 9 5 4 11 9 6 10 5 6 8 8 4 4 7 9 13 14 14 15 16 17 17 17 16 16 13 13 13 13 12 11 10 9 8 7 7 6
25 24 21 19 25 35 31 17 12 14 11 6 5 8 9 8 3 4 4 6 4 8 9 7 6 6 9 13 14 15 15 15 15 15 15 15 14 13 12 12 11 10 9 8 8 7 6 5 4
23 23 24 25 31 26 23 18 14 15 11 3 6 13 10 11 6 8 6 3 5 11 12 10 8 8 10 14 15 15 15 14 14 13 13 13 13 12 10 10 11 9 7 7 7 6 5 4 4
23 24 25 31 36 35 29 26 22 18 16 12 16 17 12 11 10 13 14 12 7 13 15 14 11 12 12 14 15 15 14 13 13 12 12 12 11 10 8 8 8 7 6 6 6 5 5 5 5
22 24 24 33 37 33 29 24 22 19 18 17 24 18 22 14 11 13 16 16 13 17 17 17 16 16 16 16 16 16 14 13 12 11 10 10 9 9 8 7 6 6 5 4 5 5 6 5 5
21 25 31 34 35 32 25 15 17 20 20 19 19 18 24 22 21 21 21 20 16 17 22 20 20 19 21 19 18 17 16 14 13 12 11 10 9 9 8 7 6 5 4 3 4 5 5 4 5
22 27 34 34 33 35 24 22 23 21 26 23 16 11 16 18 14 14 19 23 28 21 23 23 24 23 24 23 21 21 20 19 17 14 12 11 10 8 7 6 6 5 3 3 3 3 3 3 3
22 31 36 36 33 33 26 26 26 24 27 26 13 4 5 16 15 16 16 19 22 18 24 25 26 26 25 26 25 24 23 21 19 17 15 13 12 10 8 7 7 6 5 4 4 3 2 1 1
27 36 35 33 32 33 28 26 27 32 30 30 24 11 12 23 22 21 19 18 21 27 23 23 26 28 29 28 29 27 25 23 21 19 17 16 14 12 10 9 8 7 7 6 5 5 4 2 1
25 32 30 31 28 25 27 31 28 35 39 31 29 25 20 27 28 26 24 21 18 23 29 25 25 31 33 32 31 30 28 26 24 22 20 18 16 13 11 11 10 9 8 7 8 7 6 5 4
22 23 22 23 24 27 31 29 31 38 41 37 34 30 28 19 25 32 23 25 23 22 29 28 23 28 33 34 33 32 31 29 26 24 22 19 17 14 14 13 12 10 9 9 9 8 7 7 5
22 24 26 26 23 20 23 27 30 40 44 43 42 38 35 31 22 28 35 21 24 26 26 35 32 27 31 33 35 34 33 32 29 27 24 21 18 17 15 15 14 11 11 11 11 11 9 8 8
26 30 32 32 31 32 34 36 33 36 37 46 51 48 41 37 32 27 31 33 21 30 28 31 35 33 29 29 32 36 36 34 32 29 25 23 20 19 17 16 15 12 13 12 13 12 11 11 9
23 28 29 29 30 34 35 43 43 38 37 42 38 42 43 49 41 37 32 36 27 23 31 31 36 39 34 36 31 31 37 36 34 31 27 24 22 20 18 17 15 13 14 15 14 14 14 12 12
18 19 22 14 9 10 15 36 26 22 23 27 32 36 38 43 54 48 39 34 37 21 29 34 33 42 35 40 38 34 29 36 34 32 29 25 23 22 20 18 16 16 16 17 16 16 14 10 14
15 19 25 27 20 25 28 39 31 27 27 29 31 35 34 26 34 54 49 42 36 29 24 24 32 36 37 43 43 38 33 29 33 33 32 27 25 23 20 18 19 18 18 19 17 15 11 13 11
29 31 32 33 35 28 34 42 41 39 39 37 32 29 32 32 30 35 48 56 46 40 34 28 25 36 42 44 46 43 35 31 28 31 32 29 26 25 21 21 22 18 18 17 16 13 10 13 12
31 33 34 34 32 34 38 41 41 42 48 46 36 35 28 28 38 38 39 45 53 51 42 35 34 31 41 43 47 44 41 32 27 29 30 30 27 26 23 23 20 17 17 16 15 12 12 12 15
28 30 34 36 32 34 38 38 41 45 47 46 41 37 33 29 33 36 39 37 40 45 42 33 34 37 35 42 45 31 37 30 22 26 33 31 29 27 25 23 18 19 17 17 12 13 14 15 18
30 32 34 35 35 34 35 43 52 51 41 43 38 40 37 32 29 37 39 42 39 37 37 33 31 36 37 39 36 33 60 26 30 29 34 32 30 28 25 23 21 20 17 15 13 14 16 17 19
38 30 33 38 37 30 20 24 48 33 25 31 39 36 44 39 37 32 32 38 47 43 38 37 36 38 40 38 39 27 37 35 57 44 30 35 31 29 26 24 23 20 17 15 14 16 17 20 22
34 30 34 34 39 29 26 18 49 45 40 28 14 23 24 32 31 39 39 34 43 47 43 38 37 35 43 43 38 34 32 35 41 44 35 38 34 30 27 25 24 21 18 16 17 17 18 21 22
18 20 26 29 26 12 26 22 50 30 26 17 10 18 21 22 23 33 33 38 37 39 48 44 38 31 42 49 41 42 36 38 41 43 41 42 40 33 31 27 25 22 20 19 19 17 19 21 21
15 20 7 6 5 10 17 17 31 34 30 17 17 23 26 29 29 32 30 38 43 45 44 41 46 40 41 49 43 45 47 43 39 42 45 46 45 36 31 28 26 23 23 21 18 17 20 20 21
25 21 7 5 4 14 25 13 26 24 32 32 32 28 27 27 29 33 33 35 44 44 42 40 45 42 37 47 47 47 51 46 44 40 41 49 45 36 30 29 27 26 24 19 17 19 19 20 22
19 24 24 21 29 17 18 32 37 32 22 20 21 22 20 25 26 31 38 40 49 50 49 45 40 44 41 44 50 53 53 50 47 40 40 48 43 37 33 31 28 27 24 20 18 18 18 21 23
10 18 12 11 4 13 10 20 19 13 14 17 18 19 23 25 28 27 32 36 44 48 52 53 47 42 45 37 50 55 51 50 46 44 44 49 43 37 37 32 30 28 24 19 18 18 20 20 16
20 15 13 13 12 4 10 9 7 12 13 10 15 22 30 36 38 37 34 38 38 43 42 41 44 49 48 42 44 52 52 50 49 47 46 52 48 42 37 33 31 27 23 18 18 18 18 14 13
9 10 20 9 9 15 14 20 32 18 15 23 34 39 40 41 38 37 34 37 37 36 40 43 38 51 48 45 41 49 51 52 50 46 48 54 44 42 37 35 27 26 21 17 17 16 12 12 13

GFSSGP_700_spd_165.txt.gz
Wind_Speed
22 21 20 19 14 10 16 14 8 4 7 12 13 13 14 13 8 3 4 14 7 6 7 5 5 6 10 11 10 11 13 14 14 14 14 14 14 14 13 13 13 13 12 10 10 9 8 7 5
25 24 24 22 17 22 21 18 11 8 11 11 2 14 13 7 9 5 6 7 7 6 6 5 4 7 11 12 12 11 13 14 14 14 14 13 13 13 13 12 12 11 10 9 8 7 6 5 5
29 27 25 22 26 34 31 21 13 13 11 4 5 8 11 9 7 6 6 8 8 8 6 6 6 6 10 13 14 13 13 13 14 13 13 12 12 12 12 11 10 9 8 7 6 5 5 4 4
27 27 27 26 33 27 23 13 10 10 7 8 12 8 11 12 8 7 6 10 10 10 10 9 8 8 11 13 15 15 14 13 13 13 12 12 12 11 11 9 9 7 6 5 4 4 4 4 4
25 26 27 31 36 34 28 25 24 22 19 19 7 6 6 13 13 11 11 11 9 11 13 12 11 11 11 15 16 16 15 14 14 13 12 11 11 10 9 8 7 6 4 4 4 4 3 2 3
22 24 24 33 37 34 27 23 23 22 18 18 15 4 5 7 15 16 17 18 15 12 15 15 15 15 13 17 18 18 17 15 14 14 13 12 11 10 9 7 6 5 5 3 4 3 2 2 3
21 24 31 33 33 29 22 22 24 27 24 19 12 9 6 11 20 20 19 19 18 16 17 19 19 19 19 19 20 20 19 17 16 14 14 13 12 10 9 8 6 6 4 3 3 2 1 1 2
23 26 33 33 33 34 25 25 25 26 27 20 6 6 8 14 24 24 20 18 18 18 15 21 22 22 22 21 23 22 22 20 20 18 17 15 13 11 10 9 7 6 5 4 4 4 2 1 1
24 29 34 34 32 32 27 29 23 28 31 26 15 7 2 12 21 22 18 17 20 25 23 21 26 25 26 25 25 26 25 24 23 21 19 17 14 12 11 10 9 7 7 6 7 6 5 3 4
25 31 31 31 28 31 32 31 29 30 33 31 26 16 8 8 28 25 23 20 18 18 22 20 26 28 27 28 28 28 27 26 25 23 21 19 17 15 14 12 10 9 9 8 8 7 6 7 6
23 28 27 30 30 30 33 35 32 34 33 31 33 25 21 11 9 33 30 26 23 24 21 19 21 27 30 30 31 30 30 28 27 26 24 22 20 17 15 13 12 10 10 9 9 9 8 10 9
24 25 25 28 28 29 29 30 34 33 36 33 34 33 31 23 16 11 29 35 31 31 24 21 19 23 26 30 32 32 31 29 28 27 26 24 21 18 16 15 14 12 11 10 11 12 10 10 10
25 26 28 28 28 29 30 31 32 35 33 33 36 38 38 35 26 18 16 27 35 36 31 28 27 22 22 27 29 31 31 31 31 29 27 24 22 20 18 16 15 13 11 12 13 13 12 12 12
24 27 30 32 31 32 34 35 34 35 32 32 32 37 40 41 39 34 28 23 24 36 38 35 34 30 27 25 24 25 29 32 32 31 28 27 24 23 20 18 17 14 12 13 15 13 12 14 13
20 28 30 26 23 22 25 35 38 35 36 37 38 38 38 38 40 48 40 36 30 27 31 42 39 39 35 32 31 28 25 24 29 31 30 29 26 24 23 20 17 16 14 16 17 13 12 13 13
19 21 19 14 13 10 20 34 26 22 23 28 37 39 39 36 36 43 50 42 40 33 30 30 41 44 45 38 33 33 33 29 21 28 31 31 28 26 25 21 19 17 16 17 17 14 13 13 11
20 25 29 33 22 26 28 39 32 30 31 31 30 30 35 37 36 29 34 47 41 42 40 34 28 41 45 45 37 34 37 37 25 25 29 31 31 29 26 22 21 19 18 17 17 14 13 12 11
25 29 30 32 30 28 32 41 39 37 38 39 38 38 34 38 36 29 26 31 38 40 44 42 33 32 44 46 40 41 41 41 35 25 26 29 32 31 27 25 25 22 20 18 16 14 14 13 11
25 29 32 36 33 32 38 42 47 44 41 40 41 38 46 41 37 28 29 30 28 32 37 45 46 36 36 45 44 42 48 42 38 32 27 30 33 33 30 28 26 23 20 17 16 15 15 13 13
24 28 34 41 34 34 39 47 48 42 43 43 43 42 42 49 45 36 31 29 28 30 29 29 39 46 37 34 38 40 48 42 39 38 29 29 32 34 33 31 27 23 22 19 17 14 14 15 14
27 31 36 37 37 36 37 49 44 43 37 31 20 30 37 41 47 45 36 33 31 32 31 28 23 30 44 35 27 34 38 39 37 40 29 26 27 32 34 32 29 25 22 18 15 15 16 18 15
30 28 31 34 34 33 26 28 61 34 35 32 30 16 21 30 33 40 39 34 31 33 35 33 32 27 32 42 39 31 37 39 35 27 27 20 26 32 33 33 30 26 22 20 18 18 18 19 18
26 20 25 28 33 35 23 14 67 29 45 17 6 11 13 15 21 33 43 41 36 37 36 32 24 32 31 34 46 40 29 31 25 30 33 43 37 35 35 34 31 28 24 23 23 21 21 19 19
23 28 31 29 28 16 28 26 62 31 23 13 21 11 16 12 14 16 29 43 47 45 39 36 31 27 24 29 36 46 38 29 33 29 31 47 41 39 38 36 32 30 27 26 25 23 21 19 20
28 28 7 5 4 8 14 20 40 29 29 23 14 17 21 22 21 19 23 28 38 42 42 38 34 32 30 29 31 43 38 33 34 29 33 29 44 47 39 37 30 29 29 28 28 24 21 20 22
25 18 9 5 4 7 18 13 26 31 32 37 30 25 30 28 29 29 26 27 35 44 42 42 37 34 35 32 34 37 42 38 39 36 34 33 32 43 42 37 28 29 32 31 29 24 21 22 22
9 17 16 26 30 18 19 35 39 32 22 12 14 14 17 21 25 28 27 25 31 40 44 44 42 35 33 30 36 35 52 44 42 43 39 34 33 39 41 36 31 42 36 32 29 23 22 23 21
9 12 9 9 5 7 7 16 20 15 23 11 9 15 20 25 28 29 30 31 34 36 42 49 51 44 40 37 33 38 45 49 53 44 44 42 40 37 37 40 41 43 35 31 29 24 23 22 20
20 18 11 15 12 5 8 4 10 11 7 11 13 16 20 23 26 28 34 38 45 42 37 42 47 53 50 40 39 37 39 51 51 46 47 45 42 41 38 42 46 41 35 32 29 26 26 21 23
16 19 22 10 10 16 17 31 15 26 28 32 27 28 33 32 35 35 41 43 42 41 38 39 37 42 46 43 43 42 40 50 53 51 51 49 48 44 39 46 42 41 36 30 30 27 25 22 20

GFSSGP_700_spd_168.txt.gz
Wind_Speed
19 18 18 19 13 8 7 2 4 7 4 11 10 10 7 9 11 9 12 4 4 3 2 2 3 4 8 8 6 5 6 9 11 12 12 13 13 13 14 13 12 12 11 10 9 8 7 6 6
22 21 20 21 16 18 11 11 4 8 11 9 5 7 16 15 13 11 10 6 6 6 3 2 3 4 8 10 8 7 9 10 11 11 12 13 14 14 14 13 12 11 10 8 7 6 5 4 4
24 25 23 20 23 29 16 19 15 14 13 7 3 1 8 13 11 11 8 9 8 7 6 4 3 4 7 10 10 10 11 12 13 13 13 13 13 13 13 12 10 9 8 6 5 5 4 3 4
26 26 27 24 30 24 16 11 12 10 12 7 9 3 8 15 11 11 13 13 12 11 10 7 6 5 8 11 12 12 13 13 13 13 13 13 12 12 11 10 8 7 6 5 4 3 2 3 4
23 25 26 30 32 30 26 24 24 23 22 19 15 10 11 19 19 11 11 13 7 8 11 11 9 8 8 12 14 14 14 14 13 13 13 13 12 11 9 8 7 6 5 3 2 1 1 3 5
21 22 22 26 32 29 24 24 24 25 21 19 15 18 15 16 18 16 16 17 14 11 11 13 12 11 11 13 15 15 16 15 15 14 14 13 13 11 10 8 6 5 3 3 2 1 1 2 4
20 22 26 27 28 25 20 21 23 26 23 18 16 17 20 16 16 19 19 20 16 13 12 14 15 15 16 16 18 19 19 18 17 16 16 15 14 12 10 8 7 5 4 3 3 3 2 2 4
21 22 26 25 25 28 23 23 23 23 24 20 13 12 21 23 20 23 22 21 18 15 14 16 17 17 18 20 20 22 22 21 20 19 18 17 15 13 11 9 8 7 5 5 5 5 5 5 4
23 24 27 26 24 26 25 27 24 25 25 26 21 16 14 21 25 26 26 22 21 21 20 20 21 22 21 22 23 23 24 24 23 22 21 19 16 14 13 11 10 9 7 7 7 8 7 6 6
22 27 23 24 25 30 32 32 30 28 27 25 25 23 18 16 19 25 28 25 25 24 23 22 23 24 24 24 24 25 25 26 25 25 23 21 19 17 16 14 12 10 9 9 9 9 8 8 7
20 23 23 24 27 31 34 32 32 33 32 28 27 26 26 20 19 21 27 29 28 25 22 20 19 20 24 26 26 27 28 26 26 27 26 24 22 20 18 16 14 12 10 10 11 11 10 9 9
19 22 25 27 26 28 29 31 33 31 31 27 27 27 30 30 26 20 21 30 32 31 29 26 21 21 22 24 26 27 29 29 29 29 27 26 23 21 19 18 16 14 12 12 12 12 11 10 10
20 22 25 27 28 28 29 30 30 33 29 28 27 28 29 32 34 28 23 20 27 35 36 30 30 26 22 25 25 27 28 28 28 30 29 27 25 23 21 20 18 16 13 13 13 13 13 12 11
19 24 27 28 26 27 28 28 31 32 31 32 31 30 30 32 34 36 34 29 27 29 39 38 35 36 30 27 25 25 24 25 29 29 29 29 27 25 24 23 20 17 15 15 15 15 15 13 11
19 27 27 22 10 13 17 24 20 18 23 31 35 35 36 35 36 37 38 40 35 31 33 40 41 41 39 36 30 26 26 26 26 26 27 27 28 27 27 25 22 19 18 17 16 16 15 14 11
21 24 20 23 20 16 21 34 25 23 22 27 31 35 39 39 39 36 36 42 42 38 36 34 37 44 43 43 39 36 31 28 25 28 28 27 27 29 29 27 24 22 20 19 17 17 17 15 12
21 26 30 33 27 25 24 40 32 28 29 31 32 33 36 39 41 41 35 35 41 46 43 41 39 39 42 48 46 45 40 34 31 28 27 29 29 29 30 29 27 26 23 20 19 18 18 16 14
25 27 31 36 34 33 36 45 40 35 34 35 36 36 37 39 40 40 36 29 29 32 45 48 45 41 38 42 50 48 42 39 38 34 30 30 31 30 31 30 29 29 26 23 19 19 18 17 17
20 28 32 34 34 35 41 44 45 40 41 41 38 35 35 39 41 43 41 30 22 23 27 35 47 48 45 40 39 46 49 43 43 38 36 33 32 32 32 32 32 32 27 23 22 21 19 19 18
20 26 32 41 34 33 36 49 47 45 42 35 31 30 28 30 33 39 45 38 31 26 24 22 25 42 48 46 37 37 44 49 45 41 42 36 33 34 34 33 33 32 28 26 23 22 20 20 19
22 28 34 35 37 36 36 50 49 39 32 34 20 17 28 27 29 31 34 48 37 30 30 26 25 26 34 42 46 41 38 49 50 49 40 34 36 35 36 35 34 33 29 28 24 23 22 21 19
32 30 28 28 26 20 24 19 62 31 17 20 25 15 14 21 25 24 29 31 42 35 32 30 30 28 27 32 39 47 40 43 52 50 43 42 35 35 39 37 35 34 31 29 26 25 24 23 18
30 25 24 31 37 39 29 17 29 9 35 34 11 5 12 13 14 11 16 20 25 36 33 31 30 27 33 30 32 39 43 38 31 41 39 35 44 33 31 34 33 34 35 31 29 29 26 22 20
21 26 33 34 34 15 31 29 22 23 26 18 16 18 17 19 15 13 13 15 22 30 37 35 35 32 26 30 34 34 38 40 30 34 39 33 32 30 25 25 27 32 38 33 32 30 26 24 22
22 25 7 5 2 6 8 14 34 25 29 30 23 30 23 24 25 19 16 18 22 24 28 36 39 40 35 29 32 36 33 39 38 34 35 35 34 34 38 36 36 30 39 34 32 31 27 26 23
20 13 5 5 4 7 27 13 18 23 27 33 36 28 26 28 29 30 27 27 26 27 29 27 31 41 44 35 32 31 37 36 40 37 38 35 29 36 41 35 42 37 30 40 32 31 30 28 25
5 11 13 16 26 14 12 19 28 12 24 20 20 25 22 20 21 24 26 28 28 30 30 31 31 32 31 33 33 32 34 35 41 44 41 39 31 31 35 39 39 38 40 34 32 31 30 29 26
14 13 9 7 5 7 7 14 21 23 19 22 21 23 23 24 23 26 30 31 31 32 33 28 25 34 35 33 31 32 33 37 35 45 44 38 34 33 32 35 38 41 43 47 36 29 36 31 27
15 20 14 15 12 4 8 9 14 22 30 28 22 25 26 29 32 34 37 38 37 37 38 38 36 33 37 40 39 35 34 36 36 44 48 43 38 35 33 30 34 38 44 48 41 37 38 33 27
12 16 21 14 11 15 17 36 25 12 15 25 35 35 42 43 43 37 39 42 44 45 40 37 42 41 43 41 48 43 38 35 40 44 50 46 42 40 38 34 34 34 44 44 40 35 37 32 27

GFSSGP_700_spd_171.txt.gz
Wind_Speed
14 14 13 12 9 4 4 2 10 2 3 8 10 7 6 11 8 6 20 17 4 1 1 4 2 2 3 6 6 5 9 11 11 10 11 12 12 12 12 12 11 11 10 10 8 7 7 7 6
17 17 15 15 11 10 9 7 5 4 7 7 8 6 10 7 12 18 17 10 6 3 1 1 2 1 3 5 6 7 10 12 12 11 11 12 12 12 12 12 11 11 10 8 7 6 5 5 5
20 19 17 14 18 15 10 13 13 11 10 9 4 5 7 11 11 11 11 6 7 7 4 2 2 2 3 6 7 8 9 11 12 13 13 13 13 13 12 11 10 9 8 7 5 4 4 4 4
24 23 22 19 24 13 10 11 9 8 6 7 6 7 10 14 13 11 10 8 9 9 8 6 5 5 5 8 8 9 10 11 12 13 14 14 14 13 12 10 9 7 6 5 3 3 3 4 3
25 26 22 23 26 24 21 22 23 21 21 19 16 15 14 15 19 16 12 10 7 9 10 10 10 9 9 11 11 11 11 12 13 13 14 14 14 13 12 10 8 6 5 4 2 1 2 2 3
21 21 19 22 27 23 19 20 24 24 24 23 22 20 19 19 18 19 13 12 12 10 10 12 14 12 12 13 13 13 14 14 15 15 14 15 14 13 12 10 8 6 5 3 2 1 1 2 2
18 20 22 23 23 19 17 18 21 24 25 24 25 24 22 24 20 22 21 16 16 14 15 14 16 15 16 17 17 17 17 16 16 17 16 16 15 14 12 10 9 7 6 4 4 3 3 3 2
19 20 22 21 21 20 21 22 23 23 22 24 26 27 26 25 25 20 23 23 22 20 18 18 18 18 17 18 20 21 20 19 19 19 18 18 17 15 14 12 11 9 8 7 6 5 5 4 4
20 21 22 20 18 20 22 21 21 22 23 24 23 25 26 27 29 28 25 26 24 24 22 21 21 21 21 20 20 22 23 23 23 22 21 21 19 17 15 14 13 12 10 9 9 8 6 6 6
20 21 17 21 23 25 26 27 25 24 26 25 25 25 27 26 27 31 30 28 27 26 25 23 24 24 23 22 22 23 25 26 25 24 23 21 20 18 17 16 14 13 12 12 11 9 8 8 8
19 19 20 20 23 26 28 28 28 27 28 26 27 27 28 30 28 28 28 27 31 31 30 26 24 26 26 25 25 26 27 27 27 26 25 23 22 20 19 18 17 15 14 13 12 11 10 10 9
14 17 18 20 21 24 26 28 30 27 26 24 26 28 29 31 34 31 28 27 31 35 34 32 27 27 28 29 29 29 29 29 29 28 28 27 24 22 21 19 18 17 16 15 15 13 12 12 11
14 18 21 22 22 24 25 27 29 32 27 26 26 28 29 31 36 37 34 29 29 31 34 35 34 31 30 30 32 32 30 30 30 30 29 28 26 25 24 23 22 20 19 18 17 15 14 13 12
14 18 20 19 19 22 24 27 29 28 28 28 28 29 31 32 34 39 38 36 34 31 31 36 38 35 36 33 32 31 32 32 30 30 30 30 27 26 26 26 25 23 21 21 19 17 16 15 13
16 21 18 10 8 14 21 27 26 23 24 25 28 30 33 34 37 38 40 41 39 37 34 35 36 38 39 37 35 33 32 32 32 30 30 30 29 28 28 28 27 25 25 23 22 20 17 16 15
16 13 10 8 21 17 22 26 18 20 23 27 30 32 34 37 38 40 41 43 43 43 40 38 38 39 43 42 39 36 35 33 32 32 33 30 29 29 30 30 29 28 27 26 24 22 20 18 17
11 15 20 18 19 21 21 33 29 32 31 33 33 35 35 35 35 38 41 45 46 43 44 44 43 42 40 43 44 44 40 38 35 34 32 34 33 32 32 32 31 31 30 29 27 24 22 21 19
19 21 20 24 24 31 32 41 36 30 34 34 34 36 38 38 37 36 39 42 44 46 44 43 45 44 43 41 39 45 48 44 41 39 36 35 38 36 33 33 34 33 32 31 29 25 25 23 22
19 24 25 25 25 28 32 43 41 38 38 36 34 32 31 35 37 39 40 42 41 40 41 42 45 47 48 46 44 42 47 49 47 42 42 40 37 39 36 35 36 35 34 32 29 28 27 26 24
21 23 26 27 21 27 32 49 44 37 34 31 25 22 22 25 28 31 34 39 44 42 39 40 43 45 46 47 47 44 40 41 48 49 48 43 38 38 39 37 36 36 34 33 31 30 28 27 25
18 23 28 31 30 23 21 46 30 26 26 18 19 18 15 25 26 21 22 29 39 44 42 42 40 42 44 45 44 48 45 45 43 51 51 47 41 41 40 39 37 36 34 33 31 30 30 28 26
27 22 26 26 23 16 17 24 31 25 21 18 13 19 30 20 20 20 22 23 26 32 41 40 39 38 37 41 45 46 46 46 45 42 41 50 45 42 41 40 39 37 33 33 31 30 31 29 27
17 21 21 24 29 31 22 18 10 21 23 16 16 13 8 14 17 17 18 13 17 22 22 43 39 37 37 35 34 37 42 45 44 42 35 42 47 44 41 39 41 40 36 36 38 31 33 30 28
19 23 28 25 19 8 7 18 11 12 16 22 21 10 19 13 17 22 18 17 14 17 20 29 43 36 35 35 36 35 35 42 45 47 42 39 43 45 43 41 42 42 41 38 31 38 34 32 31
17 19 8 4 3 5 7 15 27 25 19 20 24 22 22 24 25 27 26 22 21 19 16 22 36 39 35 36 32 37 37 32 41 44 40 35 41 44 44 43 41 41 39 39 35 30 33 35 33
18 9 6 6 5 17 25 12 7 18 20 17 21 29 30 31 28 30 34 34 28 24 22 22 25 34 40 38 36 29 35 39 33 39 35 34 41 44 41 36 36 32 30 33 37 35 38 37 36
6 6 8 13 17 13 10 14 21 14 18 22 25 22 22 24 28 29 29 29 30 30 28 26 26 29 32 38 42 37 33 34 37 33 38 36 38 38 35 31 31 33 37 42 46 47 37 38 35
10 9 6 5 5 9 14 28 26 20 18 20 26 28 30 33 30 28 27 28 28 30 31 31 28 30 33 32 36 41 38 38 37 39 34 41 39 47 39 34 33 34 35 36 33 40 43 35 32
8 9 9 10 9 6 11 15 21 24 27 26 29 28 33 40 39 35 33 33 35 34 35 35 35 31 30 33 35 36 38 38 39 40 39 42 45 57 49 40 39 36 40 40 38 40 48 38 35
17 18 17 10 10 17 24 39 29 18 17 23 41 54 54 49 47 49 51 45 43 40 40 41 41 39 38 35 35 37 41 39 38 39 41 38 49 42 48 39 40 33 40 40 39 37 50 37 37